Bellingham, WA

12:46 PM PST on January 21, 2018 (GMT -0800)
Bellingham International

Weather History for KBLI - January, 2012

Change the Weather History Date:

Saturday, January 14, 2012

  Actual Average Record
Temperature  
Mean Temperature 37 °F 39 °F  
Max Temperature 41 °F 45 °F 62 °F (1968)
Min Temperature 30 °F 33 °F 10 °F (2007)
Degree Days  
Heating Degree Days 28 26  
Month to date heating degree days 370  
Cooling Degree Days 0 0  
Month to date cooling degree days 0  
Year to date cooling degree days 0  
Moisture  
Dew Point 32 °F    
Average Humidity 85    
Maximum Humidity 100    
Minimum Humidity 55    
Precipitation  
Precipitation 0.57 in 0.16 in 0.94 in (1996)
Month to date precipitation 2.14  
Year to date precipitation 2.14  
Sea Level Pressure  
Sea Level Pressure 29.93 in    
Wind  
Wind Speed 8 mph (SSE)    
Max Wind Speed 18 mph    
Max Gust Speed 29 mph    
Visibility 8 miles    
Events Rain , Snow    
T = Trace of Precipitation, MM = Missing Value Source: NWS Daily Summary

Daily Weather History Graph

Daily Weather History Graph

Search for Another Location

Airport or City:

Trip Planner

Search our weather history database for the weather conditions in past years. The results will help you decide how hot, cold, wet, or windy it might be!

Date:

Astronomy

Jan. 14, 2012 Rise Set
Actual Time 7:58 AM PST 4:39 PM PST
Civil Twilight 7:23 AM PST 5:15 PM PST
Nautical Twilight 6:43 AM PST 5:55 PM PST
Astronomical Twilight 6:05 AM PST 6:32 PM PST
Moon 11:46 PM PST (1/14) 10:11 AM PST (1/14)
Length of Visible Light 9h 52m
Length of Day
8h 40m
Waning Gibbous, 67% of the Moon is Illuminated
Jan 14
Waning Gibbous
Jan 16
Last Quarter
Jan 22
New
Jan 30
First Quarter
Feb 7
Full

Hourly Weather History & Observations

Time (PST) Temp. Windchill Dew Point Humidity Pressure Visibility Wind Dir Wind Speed Gust Speed Precip Events Conditions
12:37 AM 33.8 °F 27.7 °F 32.0 °F 93% 30.03 in 5.0 mi ESE 6.9 mph - 0.09 in Rain Light Freezing Rain
12:53 AM 34.0 °F 28.0 °F 32.0 °F 92% 30.05 in 7.0 mi ESE 6.9 mph - 0.10 in Rain Light Rain
1:27 AM 33.8 °F 27.0 °F 32.0 °F 93% 30.01 in 2.5 mi SSE 8.1 mph - 0.05 in Snow Light Snow
1:42 AM 33.8 °F 27.7 °F 33.8 °F 100% 30.01 in 3.0 mi SSE 6.9 mph - 0.06 in Snow Light Snow
1:50 AM 33.8 °F 28.6 °F 32.0 °F 93% 30.01 in 3.0 mi SSE 5.8 mph - 0.07 in Snow Light Snow
1:53 AM 34.0 °F 28.0 °F 32.0 °F 92% 30.04 in 2.5 mi SSE 6.9 mph - 0.08 in Snow Light Snow
2:13 AM 33.8 °F 27.7 °F 32.0 °F 93% 30.00 in 1.8 mi SSE 6.9 mph - 0.04 in Snow Light Snow
2:19 AM 33.8 °F 27.7 °F 32.0 °F 93% 30.00 in 2.0 mi SSE 6.9 mph - 0.05 in Snow Light Snow
2:51 AM 33.8 °F 28.6 °F 32.0 °F 93% 29.98 in 3.0 mi SE 5.8 mph - 0.12 in Snow Light Snow
2:53 AM 34.0 °F 29.8 °F 32.0 °F 92% 30.01 in 3.0 mi SSE 4.6 mph - 0.13 in Snow Light Snow
3:12 AM 33.8 °F 27.7 °F 33.8 °F 100% 29.97 in 4.0 mi SSE 6.9 mph - 0.03 in Snow Light Snow
3:38 AM 33.8 °F 29.6 °F 33.8 °F 100% 29.96 in 7.0 mi South 4.6 mph - 0.07 in Rain Light Freezing Rain
3:53 AM 35.1 °F 32.2 °F 33.1 °F 92% 29.98 in 7.0 mi South 3.5 mph - 0.09 in Rain Light Freezing Rain
4:06 AM 35.6 °F 30.7 °F 33.8 °F 93% 29.95 in 8.0 mi South 5.8 mph - 0.02 in Rain Light Rain
4:10 AM 35.6 °F 30.7 °F 33.8 °F 93% 29.95 in 8.0 mi South 5.8 mph - 0.02 in Rain Light Freezing Rain
4:53 AM 37.0 °F 30.4 °F 34.0 °F 89% 29.96 in 8.0 mi South 9.2 mph - 0.05 in Rain Light Freezing Rain
5:17 AM 35.6 °F 28.0 °F 33.8 °F 93% 29.92 in 6.0 mi South 10.4 mph 18.4 mph 0.03 in Rain Light Freezing Rain
5:30 AM 35.6 °F 27.5 °F 33.8 °F 93% 29.92 in 6.0 mi South 11.5 mph - 0.05 in Rain Light Freezing Rain
5:53 AM 36.0 °F 28.0 °F 34.0 °F 93% 29.94 in 7.0 mi South 11.5 mph 20.7 mph 0.07 in Rain Light Freezing Rain
6:50 AM 35.6 °F 27.1 °F 33.8 °F 93% 29.88 in 10.0 mi South 12.7 mph 19.6 mph 0.02 in Rain Light Freezing Rain
6:53 AM 37.0 °F 29.8 °F 35.1 °F 93% 29.90 in 10.0 mi SSE 10.4 mph 19.6 mph 0.02 in Rain Light Freezing Rain
7:11 AM 37.4 °F 28.9 °F 35.6 °F 93% 29.86 in 10.0 mi South 13.8 mph 20.7 mph 0.00 in   Overcast
7:31 AM 37.4 °F 30.8 °F 35.6 °F 93% 29.86 in 10.0 mi SSE 9.2 mph 18.4 mph 0.00 in   Overcast
7:53 AM 37.9 °F 28.9 °F 35.1 °F 89% 29.88 in 10.0 mi SSE 16.1 mph 23.0 mph 0.00 in   Overcast
8:12 AM 37.4 °F 28.9 °F 33.8 °F 87% 29.84 in 10.0 mi SSE 13.8 mph 25.3 mph N/A   Overcast
8:24 AM 37.4 °F 27.8 °F 33.8 °F 87% 29.83 in 10.0 mi SSE 17.3 mph 25.3 mph N/A   Overcast
8:53 AM 39.0 °F 31.0 °F 35.1 °F 86% 29.85 in 10.0 mi SSE 13.8 mph 20.7 mph 0.00 in Rain Light Rain
9:42 AM 37.4 °F 27.5 °F 35.6 °F 93% 29.84 in 6.0 mi South 18.4 mph 28.8 mph 0.01 in Rain Light Rain
9:53 AM 37.0 °F 28.1 °F 35.1 °F 93% 29.87 in 6.0 mi South 15.0 mph 25.3 mph 0.02 in Rain Light Rain
10:17 AM 37.4 °F 29.3 °F 33.8 °F 87% 29.85 in 7.0 mi South 12.7 mph 21.9 mph 0.00 in Rain Light Rain
10:53 AM 37.9 °F 32.7 °F 35.1 °F 89% 29.87 in 10.0 mi South 6.9 mph - 0.01 in   Overcast
11:04 AM 37.4 °F 31.4 °F 35.6 °F 93% 29.83 in 10.0 mi South 8.1 mph - N/A   Overcast
11:48 AM 39.2 °F 35.9 °F 32.0 °F 75% 29.84 in 10.0 mi Variable 4.6 mph - N/A   Overcast
11:53 AM 39.0 °F 34.0 °F 32.0 °F 76% 29.87 in 10.0 mi SW 6.9 mph - N/A   Overcast
12:53 PM 39.9 °F 35.8 °F 28.9 °F 65% 29.90 in 10.0 mi Variable 5.8 mph - N/A   Mostly Cloudy
1:53 PM 41.0 °F 36.4 °F 26.1 °F 55% 29.89 in 10.0 mi SSW 6.9 mph - N/A   Clear
2:53 PM 39.9 °F 35.8 °F 26.1 °F 58% 29.90 in 10.0 mi WSW 5.8 mph - N/A   Partly Cloudy
3:53 PM 39.9 °F 35.1 °F 26.1 °F 58% 29.91 in 10.0 mi Variable 6.9 mph - N/A   Mostly Cloudy
4:53 PM 37.0 °F 33.3 °F 26.1 °F 65% 29.93 in 10.0 mi South 4.6 mph - N/A   Partly Cloudy
5:53 PM 36.0 °F 32.1 °F 28.0 °F 73% 29.93 in 10.0 mi South 4.6 mph - N/A   Clear
6:53 PM 37.0 °F 33.3 °F 28.0 °F 70% 29.94 in 10.0 mi South 4.6 mph - N/A   Clear
7:53 PM 36.0 °F 32.1 °F 26.1 °F 67% 29.95 in 10.0 mi South 4.6 mph - N/A   Clear
8:53 PM 35.1 °F 30.1 °F 26.1 °F 70% 29.96 in 10.0 mi South 5.8 mph - N/A   Scattered Clouds
9:53 PM 35.1 °F 31.0 °F 28.0 °F 76% 29.98 in 10.0 mi Variable 4.6 mph - N/A   Scattered Clouds
10:53 PM 34.0 °F 29.8 °F 27.0 °F 75% 29.98 in 10.0 mi Variable 4.6 mph - N/A   Clear
11:53 PM 30.9 °F - 27.0 °F 85% 29.98 in 10.0 mi Calm Calm - N/A   Clear